SCP
0 0 0 0 0 0 0 0 0 0 0 0 0 0 0 0 0 0 0 0 0 0 0 0 0 0 0 0 0 -0 -0 0 -0 0 0 0 0 0 0 0 0 0 0 0
0 -0 -0 0 0 0 0 0 0 0 0 0 0 0 0 0 0 0 0 0 0 0 0 0 0 0 0 0 0 0 0 0 -0 0 0 0 0 0 0 0 0 0 0 0
0 0 -0 -0 -0 0 0 0 0 0 0 0 0 0 0 0 0 0 0 0 0 0 0 0 0 0 0 0 0 0 0 0 0 0 0 0 -0 0 0 0 0 0 0 -0
-0 0 0 -0 -0 0 0 0 0 0 0 0 0 0 0 0 0 0 0 0 0 0 0 0 0 0 0 0 0 0 0 0 0 0 0 0 0 -0 0 0 0 0 0 0
0 -0 0 0 0 0 0 0 0 0 0 0 0 0 0 0 0 0 0 0 0 0 0 0 0 0 0 0 0 0 0 0 0 0 0 0 -0 -0 0 0 0 0 0 -0
0 0 0 0 0 0 0 0 0 0 0 0 0 0 0 0 0 0 0 0 0 0 0 0 0 0 0 0 0 0 0 0 0 -0 0 0 -0 0 0 0 0 0 0 0
0 0 0 0 0 0 0 0 0 0 0 0 0 0 0 0 0 0 0 0 0 0 0 0 0 0 0 0 0 0 0 0 0 0 0 0 0 0 0 0 0 0 0 0
0 0 0 0 0 0 0 0 0 0 0 0 0 0 0 0 0 0 0 0 0 0 0 0 0 0 0 0 0 0 0 0 0 0 0 0 0 0 0 0 0 0 0 0
0 0 0 0 0 0 0 0 0 0 0 0 0 0 0 0 0 0 0 0 0 0 0 0 0 0 0 0 0 0 0 0 0 0 0 0 0 0 0 0 0 0 0 0
0 0 0 0 0 0 0 0 0 0 0 0 0 0 0 0 0 0 0 0 0 0 0 0 0 0 0 0 0 0 0 0 0 0 0 0 0 0 0 0 0 0 0 0
0 0 0 0 0 0 0 0 0 0 0 0 0 0 0 0 0 0 0 0 0 0 0 0 0 0 0 0 0 0 0 0 0 0 0 0 0 0 0 0 0 0 -0 0
0 0 0 0 0 0 0 0 0 0 0 0 0 0 0 0 0 0 0 0 0 0 0 0 0 0 0 0 0 0 0 0 0 0 0 0 0 0 -0 0 0 0 -0 0
0 0 0 0 0 0 0 0 0 0 0 0 0 0 0 0 0 0 0 0 0 0 0 0 0 0 0 0 0 0 -0 0 0 0 0 0 0 0 0 0 0 0 0 -0
0 0 0 0 0 0 0 0 0 0 0 0 0 0 0 0 0 0 0 0 0 0 0 0 0 0 0 0 0 0 0 -0 0 0 -0 -0 0 0 0 0 0 0 0 -0
0 0 0 0 0 0 0 0 0 0 0 0 0 0 0 0 0 0 0 0 0 0 0 0 0 0 0 0 0 0 0 0 0 0 0 0 0 0 0 0 0 0 -0 -0
0 0 0 0 0 0 0 0 0 0 0 0 0 0 0 0 0 -0 0 0 0 0 0 0 0 0 0 0 0 -0 0 0 0 0 0 0 0 0 0 0 0 0 -0 -0
0 0 0 0 0 0 0 0 0 0 0 0 0 0 0 0 0 0 0 0 0 0 0 0 0 0 0 0 0 0 -0 0 -0 -0 0 0 0 0 0 0 0 0 -0 0
0 0 0 0 0 0 0 0 0 0 0 0 0 0 0 0 0 0 0 0 0 0 0 0 0 0 0 -0 -0 -0 0 0 0 0 0 0 0 0 -0 0 0 0 -0 -0
0 0 0 0 0 0 0 0 0 0 0 0 0 0 0 0 0 0 0 0 0 0 -0 -0 0 0 0 -0 -0 -0 0 0 0 0 0 0 -0 0 -0 0 0 -0 0 -0
0 0 0 0 0 0 0 0 0 0 0 0 0 0 0 0 0 0 0 0 0 -0 0 0 0 0 0 -0 -0 0 0 0 0 0 0 -0 0 0 -0 0 -0 -0 0 -0
0 0 0 0 0 0 0 0 0 0 0 0 0 0 0 0 0 0 0 0 -0 0 -0 -0 -0 0 -0 -0 -0 -0 0 0 0 0 0 0 0 -0 0 0 0 -0 0 0
0 0 0 0 0 0 0 0 0 0 0 0 0 0 0 0 0 0 -0 0 0 0 0 -0 0 -0 -0 -0 -0 -0 0 0 0 0 0 0 -0 -0 0 0 0 0 0 0
0 0 0 0 0 0 0 0 0 0 0 0 0 0 0 0 0 -0 -0 -0 0 -0 0 -0 -0 -0 -0 -0 -0 -0 -0 0 0 0 0 -0 -0 -0 0 0 0 0 0 0
0 0 0 0 0 0 0 0 0 0 0 0 0 0 0 0 -0 -0 -0 -0 0 0 0 -0 -0 -0 -0 -0 -0 -0 -0 0 0 0 0 -0 -0 -0 -0 0 0 0 0 0
0 0 0 0 0 0 0 0 0 0 0 0 0 -0 -0 -0 0 -0 -0 -0 -0 0 0 0 -0 -0 -0 -0 -0 -0 -0 0 0 0 0 -0 -0 -0 -0 0 0 0 0 0
0 0 0 0 0 0 0 0 0 0 0 0 -0 -0 -0 -0 -0 -0 -0 -0 0 0 0 0 -0 -0 -0 -0 -0 -0 -0 0 0 0 0 -0 -0 -0 -0 0 0 0 0 0
0 0 0 0 0 0 0 0 0 0 0 0 0 0 0 -0 0 0 0 0 0 0 -0 -0 -0 -0 -0 -0 -0 -0 -0 -0 0 0 0 0 -0 -0 -0 -0 0 0 0 0
Wind_Speed_500mb
55 55 56 55 53 49 29 9 4 10 21 10 4 1 5 14 8 7 8 6 7 8 6 7 7 12 10 11 10 8 7 6 7 15 15 13 11 12 9 7 11 8 6 30
53 54 52 52 53 49 42 18 8 6 10 4 5 12 9 7 4 8 4 6 7 5 6 6 9 7 5 13 13 11 10 1 7 15 6 9 3 8 8 4 1 24 12 21
53 52 52 47 44 42 34 13 7 7 8 7 6 8 9 9 18 4 6 6 3 8 5 9 10 6 7 7 8 13 16 9 13 12 14 5 18 21 22 22 9 16 33 53
52 54 52 49 41 36 26 14 3 3 7 4 4 6 6 7 9 13 15 5 10 3 7 6 11 6 8 10 22 8 14 14 12 20 28 25 32 41 40 32 36 25 40 41
54 54 53 50 46 35 16 13 11 8 11 15 9 4 3 5 6 7 5 1 12 9 11 13 14 12 9 14 10 8 3 8 10 15 20 29 38 38 38 41 37 36 41 47
54 51 50 51 48 42 12 13 12 10 6 6 3 5 4 8 16 14 7 7 6 8 15 23 42 45 41 28 14 12 13 9 4 31 19 20 23 35 19 9 11 10 17 36
51 51 47 45 46 41 28 14 13 8 8 3 6 6 20 19 11 13 23 23 8 11 46 57 45 54 48 40 35 31 15 12 8 14 4 14 9 5 4 9 17 20 28 32
46 50 48 42 38 36 28 18 6 5 7 11 23 14 7 25 22 12 24 17 29 36 32 6 11 9 4 6 5 9 24 10 6 5 6 14 15 4 8 8 19 26 32 28
42 45 48 44 38 33 27 14 6 6 10 9 14 6 13 6 7 11 12 34 29 23 1 3 4 6 6 5 5 15 14 12 6 3 4 10 11 5 7 8 18 13 8 23
40 44 46 45 40 34 27 11 16 8 12 25 15 11 7 6 5 7 17 16 14 11 4 2 5 7 7 5 4 7 5 4 14 9 8 14 9 11 12 2 15 8 27 44
40 42 45 45 38 36 26 17 12 16 14 54 36 24 20 19 19 6 9 17 5 8 7 3 4 5 6 7 6 7 10 8 7 7 9 13 10 9 10 17 34 42 57 62
40 43 43 47 39 32 27 26 22 33 27 50 73 68 68 55 53 27 9 9 14 8 4 5 5 5 6 6 7 4 6 6 4 12 10 14 23 33 51 61 56 65 59 66
40 42 41 44 40 32 29 36 35 35 19 41 15 3 15 41 30 28 23 13 15 15 15 4 5 9 3 4 7 6 8 4 5 10 8 16 38 52 45 42 56 69 66 54
41 45 43 43 39 33 33 33 24 19 13 10 15 35 21 16 18 28 46 38 23 23 13 7 5 5 13 6 10 11 20 14 8 10 18 30 34 47 55 60 42 39 53 66
38 43 42 41 36 31 31 7 10 5 4 8 29 31 25 39 25 13 24 40 44 18 9 6 5 7 5 7 4 6 7 11 6 12 33 35 49 60 56 49 50 56 56 52
38 40 39 36 30 27 18 4 11 18 9 12 7 22 22 34 30 23 10 23 39 23 9 8 9 13 8 5 6 15 34 36 45 27 46 54 62 54 33 43 47 59 56 58
35 38 38 33 23 19 7 0 4 9 17 7 12 18 14 31 22 17 9 6 20 17 10 11 10 12 16 4 7 19 51 53 49 62 47 40 19 22 41 44 45 65 58 50
34 36 36 29 22 11 2 1 3 9 11 7 4 8 20 24 15 12 5 5 11 11 7 6 6 4 7 6 20 49 57 58 56 42 47 33 38 45 51 47 53 47 50 52
31 32 18 2 7 3 2 18 7 8 7 4 4 4 8 22 15 11 7 4 5 5 5 5 5 1 4 21 45 63 59 43 53 43 37 35 39 49 50 47 40 40 52 47
24 11 3 4 6 10 16 2 3 5 6 4 5 5 7 10 10 9 9 5 4 4 5 8 2 3 18 50 72 65 65 50 37 28 31 39 51 49 53 46 40 35 41 36
6 4 5 6 10 7 4 4 5 6 4 7 9 12 10 11 5 6 6 6 4 4 4 4 5 7 38 84 84 63 45 31 18 21 31 41 42 42 47 47 40 37 33 31
8 5 2 7 5 4 3 5 5 7 4 7 9 14 17 15 10 8 8 5 4 3 15 6 5 11 68 78 87 76 48 17 31 31 40 50 43 36 40 42 43 37 35 33
2 3 3 2 5 1 5 0 4 5 5 8 13 11 17 8 4 4 5 6 5 9 7 4 6 43 73 80 81 79 57 25 28 34 44 47 41 38 44 44 37 34 35 32
6 5 4 7 6 7 4 7 7 6 10 24 27 14 4 5 7 2 4 5 4 6 10 7 16 60 77 80 77 75 63 45 26 33 44 50 44 40 45 43 38 39 40 36
7 7 6 9 4 7 8 5 1 7 22 31 21 4 3 6 6 6 6 7 6 4 8 10 48 64 73 78 82 80 71 62 29 21 35 45 44 43 46 53 47 46 45 48
8 9 5 6 7 2 5 7 7 17 23 16 6 6 6 8 5 7 10 6 6 7 14 45 55 64 70 79 74 70 67 56 31 15 28 37 43 40 40 44 51 50 52 56
8 11 16 12 9 5 8 2 7 15 9 3 5 7 1 4 5 5 5 2 7 34 46 45 62 65 68 73 61 62 53 46 32 14 22 30 36 37 47 45 47 56 61 62
Wind_Direction_500mb
3 2 2 359 1 7 9 350 34 339 356 41 27 292 267 308 308 307 229 186 212 226 242 269 253 232 192 161 167 168 203 170 266 240 278 251 172 206 151 133 266 235 238 270
1 1 1 359 354 358 359 341 303 354 342 91 320 308 293 262 302 305 272 255 213 204 233 278 219 239 219 195 171 175 185 248 309 329 16 356 115 206 201 205 265 250 260 263
360 1 359 1 353 353 356 351 360 337 58 86 99 354 282 320 317 260 14 245 39 27 270 236 276 248 257 323 261 294 175 173 192 227 248 211 283 263 259 255 246 261 241 276
357 359 0 2 3 354 355 3 20 5 302 334 344 238 274 292 350 334 335 317 11 222 263 275 248 249 310 266 286 283 151 205 209 243 257 268 267 272 275 260 254 245 271 264
354 357 0 3 6 7 357 8 357 335 291 305 329 335 84 294 346 257 264 36 289 295 233 222 273 269 207 226 274 186 162 250 197 258 247 253 269 270 264 263 261 255 258 266
351 355 359 1 4 11 18 359 329 311 289 322 40 231 36 308 331 289 210 285 299 266 251 292 284 268 251 244 213 195 174 172 160 273 284 294 272 247 231 230 224 221 262 275
349 350 356 0 0 4 3 344 334 326 284 277 235 296 321 278 277 249 286 301 233 275 311 304 286 261 253 244 241 221 208 168 170 279 280 240 279 336 308 249 268 266 268 260
349 348 348 355 359 354 347 328 284 299 284 258 289 253 245 305 295 264 276 286 322 313 309 295 326 322 283 73 102 260 202 149 227 225 211 300 300 213 199 203 281 275 273 265
344 347 344 344 352 352 346 329 303 248 295 255 256 283 258 259 303 319 276 311 323 317 283 285 267 295 294 256 119 47 114 142 193 169 230 247 237 235 65 72 280 283 263 274
338 342 341 338 342 349 348 327 283 279 262 277 274 234 233 225 236 253 291 336 322 356 331 270 240 258 294 306 286 165 157 202 222 226 248 279 253 132 112 216 264 276 299 273
331 336 339 333 336 340 350 334 301 327 266 285 277 259 242 234 230 194 322 347 330 349 16 263 309 289 348 305 313 292 197 189 209 201 221 264 144 99 189 238 285 298 294 281
327 330 336 328 329 335 327 316 302 305 279 273 291 285 276 276 256 253 227 248 306 293 38 5 338 318 313 307 295 277 269 194 218 209 222 236 210 247 279 287 277 294 292 288
322 325 330 325 324 331 321 311 314 313 292 304 308 18 322 314 289 265 206 235 214 225 221 180 248 264 279 288 267 314 299 326 262 352 273 265 283 301 311 317 294 293 298 296
322 324 327 323 323 333 327 315 315 297 293 295 294 325 353 3 324 232 221 259 270 247 195 211 250 243 204 248 251 257 259 313 253 258 278 305 296 307 304 307 310 311 308 310
319 320 323 321 324 334 336 339 11 333 269 297 294 337 12 12 1 287 260 246 225 204 175 213 224 246 296 263 256 247 212 223 225 277 305 276 283 294 302 300 315 322 323 315
318 317 315 318 321 336 358 163 46 43 39 315 301 313 340 2 2 354 316 230 215 229 198 216 220 220 223 271 265 256 259 268 292 282 297 293 302 297 286 311 322 329 314 319
317 312 310 310 304 320 332 176 319 294 329 272 295 313 314 341 332 346 28 235 217 232 226 231 230 230 204 247 269 305 317 310 319 317 304 299 307 314 319 313 315 324 324 316
317 309 304 302 286 272 225 232 322 283 243 269 308 281 319 350 318 321 305 240 215 223 241 251 235 224 198 266 269 302 306 308 301 300 325 307 313 319 327 325 313 315 320 323
317 306 310 22 154 178 320 327 323 191 213 243 241 279 296 331 317 303 282 268 249 252 248 239 185 69 57 305 320 318 321 320 294 324 326 306 322 323 321 325 325 325 326 323
312 296 238 199 198 248 313 161 241 208 225 225 255 268 279 301 321 302 315 258 238 257 236 130 172 97 290 334 334 330 329 343 332 326 331 340 333 329 330 333 332 330 329 325
305 243 210 226 255 254 232 220 225 193 238 230 247 247 277 294 257 277 269 287 266 267 52 306 62 359 342 336 333 348 346 340 335 350 353 341 337 332 334 336 345 348 340 331
307 283 208 169 203 223 242 213 177 218 257 224 231 263 254 281 245 269 288 284 295 332 345 37 13 345 340 338 344 350 360 7 349 354 354 354 352 349 343 349 354 354 355 358
174 156 164 193 171 74 226 151 340 337 215 253 256 282 292 270 273 323 339 349 340 1 19 24 45 336 341 340 343 351 14 357 347 354 0 6 7 7 4 1 7 8 4 12
185 170 334 186 211 229 168 163 198 255 271 316 315 281 265 346 20 351 331 360 339 35 12 5 346 343 339 340 341 350 358 359 334 347 1 11 16 19 14 16 19 18 24 29
195 188 224 210 255 152 177 173 134 7 342 331 332 2 334 4 22 21 351 24 38 34 10 310 326 338 336 338 340 346 351 355 342 344 3 14 20 27 26 27 29 31 35 46
209 226 247 217 143 272 138 112 16 348 334 331 25 45 52 37 346 36 5 59 8 323 322 315 330 335 335 335 339 349 355 4 355 343 7 17 23 29 29 25 39 45 49 50
216 234 225 251 246 224 155 174 340 342 344 25 60 63 271 326 39 56 36 36 300 315 317 324 334 331 329 333 339 351 359 11 10 341 3 17 27 31 38 42 44 56 59 59
Wind_Speed_850mb
55 55 56 55 53 49 29 9 4 10 21 10 4 1 5 14 8 7 8 6 7 8 6 7 7 12 10 11 10 8 7 6 7 15 15 13 11 12 9 7 11 8 6 30
53 54 52 52 53 49 42 18 8 6 10 4 5 12 9 7 4 8 4 6 7 5 6 6 9 7 5 13 13 11 10 1 7 15 6 9 3 8 8 4 1 24 12 21
53 52 52 47 44 42 34 13 7 7 8 7 6 8 9 9 18 4 6 6 3 8 5 9 10 6 7 7 8 13 16 9 13 12 14 5 18 21 22 22 9 16 33 53
52 54 52 49 41 36 26 14 3 3 7 4 4 6 6 7 9 13 15 5 10 3 7 6 11 6 8 10 22 8 14 14 12 20 28 25 32 41 40 32 36 25 40 41
54 54 53 50 46 35 16 13 11 8 11 15 9 4 3 5 6 7 5 1 12 9 11 13 14 12 9 14 10 8 3 8 10 15 20 29 38 38 38 41 37 36 41 47
54 51 50 51 48 42 12 13 12 10 6 6 3 5 4 8 16 14 7 7 6 8 15 23 42 45 41 28 14 12 13 9 4 31 19 20 23 35 19 9 11 10 17 36
51 51 47 45 46 41 28 14 13 8 8 3 6 6 20 19 11 13 23 23 8 11 46 57 45 54 48 40 35 31 15 12 8 14 4 14 9 5 4 9 17 20 28 32
46 50 48 42 38 36 28 18 6 5 7 11 23 14 7 25 22 12 24 17 29 36 32 6 11 9 4 6 5 9 24 10 6 5 6 14 15 4 8 8 19 26 32 28
42 45 48 44 38 33 27 14 6 6 10 9 14 6 13 6 7 11 12 34 29 23 1 3 4 6 6 5 5 15 14 12 6 3 4 10 11 5 7 8 18 13 8 23
40 44 46 45 40 34 27 11 16 8 12 25 15 11 7 6 5 7 17 16 14 11 4 2 5 7 7 5 4 7 5 4 14 9 8 14 9 11 12 2 15 8 27 44
40 42 45 45 38 36 26 17 12 16 14 54 36 24 20 19 19 6 9 17 5 8 7 3 4 5 6 7 6 7 10 8 7 7 9 13 10 9 10 17 34 42 57 62
40 43 43 47 39 32 27 26 22 33 27 50 73 68 68 55 53 27 9 9 14 8 4 5 5 5 6 6 7 4 6 6 4 12 10 14 23 33 51 61 56 65 59 66
40 42 41 44 40 32 29 36 35 35 19 41 15 3 15 41 30 28 23 13 15 15 15 4 5 9 3 4 7 6 8 4 5 10 8 16 38 52 45 42 56 69 66 54
41 45 43 43 39 33 33 33 24 19 13 10 15 35 21 16 18 28 46 38 23 23 13 7 5 5 13 6 10 11 20 14 8 10 18 30 34 47 55 60 42 39 53 66
38 43 42 41 36 31 31 7 10 5 4 8 29 31 25 39 25 13 24 40 44 18 9 6 5 7 5 7 4 6 7 11 6 12 33 35 49 60 56 49 50 56 56 52
38 40 39 36 30 27 18 4 11 18 9 12 7 22 22 34 30 23 10 23 39 23 9 8 9 13 8 5 6 15 34 36 45 27 46 54 62 54 33 43 47 59 56 58
35 38 38 33 23 19 7 0 4 9 17 7 12 18 14 31 22 17 9 6 20 17 10 11 10 12 16 4 7 19 51 53 49 62 47 40 19 22 41 44 45 65 58 50
34 36 36 29 22 11 2 1 3 9 11 7 4 8 20 24 15 12 5 5 11 11 7 6 6 4 7 6 20 49 57 58 56 42 47 33 38 45 51 47 53 47 50 52
31 32 18 2 7 3 2 18 7 8 7 4 4 4 8 22 15 11 7 4 5 5 5 5 5 1 4 21 45 63 59 43 53 43 37 35 39 49 50 47 40 40 52 47
24 11 3 4 6 10 16 2 3 5 6 4 5 5 7 10 10 9 9 5 4 4 5 8 2 3 18 50 72 65 65 50 37 28 31 39 51 49 53 46 40 35 41 36
6 4 5 6 10 7 4 4 5 6 4 7 9 12 10 11 5 6 6 6 4 4 4 4 5 7 38 84 84 63 45 31 18 21 31 41 42 42 47 47 40 37 33 31
8 5 2 7 5 4 3 5 5 7 4 7 9 14 17 15 10 8 8 5 4 3 15 6 5 11 68 78 87 76 48 17 31 31 40 50 43 36 40 42 43 37 35 33
2 3 3 2 5 1 5 0 4 5 5 8 13 11 17 8 4 4 5 6 5 9 7 4 6 43 73 80 81 79 57 25 28 34 44 47 41 38 44 44 37 34 35 32
6 5 4 7 6 7 4 7 7 6 10 24 27 14 4 5 7 2 4 5 4 6 10 7 16 60 77 80 77 75 63 45 26 33 44 50 44 40 45 43 38 39 40 36
7 7 6 9 4 7 8 5 1 7 22 31 21 4 3 6 6 6 6 7 6 4 8 10 48 64 73 78 82 80 71 62 29 21 35 45 44 43 46 53 47 46 45 48
8 9 5 6 7 2 5 7 7 17 23 16 6 6 6 8 5 7 10 6 6 7 14 45 55 64 70 79 74 70 67 56 31 15 28 37 43 40 40 44 51 50 52 56
8 11 16 12 9 5 8 2 7 15 9 3 5 7 1 4 5 5 5 2 7 34 46 45 62 65 68 73 61 62 53 46 32 14 22 30 36 37 47 45 47 56 61 62
Wind_Direction_850mb
3 2 2 359 1 7 9 350 34 339 356 41 27 292 267 308 308 307 229 186 212 226 242 269 253 232 192 161 167 168 203 170 266 240 278 251 172 206 151 133 266 235 238 270
1 1 1 359 354 358 359 341 303 354 342 91 320 308 293 262 302 305 272 255 213 204 233 278 219 239 219 195 171 175 185 248 309 329 16 356 115 206 201 205 265 250 260 263
360 1 359 1 353 353 356 351 360 337 58 86 99 354 282 320 317 260 14 245 39 27 270 236 276 248 257 323 261 294 175 173 192 227 248 211 283 263 259 255 246 261 241 276
357 359 0 2 3 354 355 3 20 5 302 334 344 238 274 292 350 334 335 317 11 222 263 275 248 249 310 266 286 283 151 205 209 243 257 268 267 272 275 260 254 245 271 264
354 357 0 3 6 7 357 8 357 335 291 305 329 335 84 294 346 257 264 36 289 295 233 222 273 269 207 226 274 186 162 250 197 258 247 253 269 270 264 263 261 255 258 266
351 355 359 1 4 11 18 359 329 311 289 322 40 231 36 308 331 289 210 285 299 266 251 292 284 268 251 244 213 195 174 172 160 273 284 294 272 247 231 230 224 221 262 275
349 350 356 0 0 4 3 344 334 326 284 277 235 296 321 278 277 249 286 301 233 275 311 304 286 261 253 244 241 221 208 168 170 279 280 240 279 336 308 249 268 266 268 260
349 348 348 355 359 354 347 328 284 299 284 258 289 253 245 305 295 264 276 286 322 313 309 295 326 322 283 73 102 260 202 149 227 225 211 300 300 213 199 203 281 275 273 265
344 347 344 344 352 352 346 329 303 248 295 255 256 283 258 259 303 319 276 311 323 317 283 285 267 295 294 256 119 47 114 142 193 169 230 247 237 235 65 72 280 283 263 274
338 342 341 338 342 349 348 327 283 279 262 277 274 234 233 225 236 253 291 336 322 356 331 270 240 258 294 306 286 165 157 202 222 226 248 279 253 132 112 216 264 276 299 273
331 336 339 333 336 340 350 334 301 327 266 285 277 259 242 234 230 194 322 347 330 349 16 263 309 289 348 305 313 292 197 189 209 201 221 264 144 99 189 238 285 298 294 281
327 330 336 328 329 335 327 316 302 305 279 273 291 285 276 276 256 253 227 248 306 293 38 5 338 318 313 307 295 277 269 194 218 209 222 236 210 247 279 287 277 294 292 288
322 325 330 325 324 331 321 311 314 313 292 304 308 18 322 314 289 265 206 235 214 225 221 180 248 264 279 288 267 314 299 326 262 352 273 265 283 301 311 317 294 293 298 296
322 324 327 323 323 333 327 315 315 297 293 295 294 325 353 3 324 232 221 259 270 247 195 211 250 243 204 248 251 257 259 313 253 258 278 305 296 307 304 307 310 311 308 310
319 320 323 321 324 334 336 339 11 333 269 297 294 337 12 12 1 287 260 246 225 204 175 213 224 246 296 263 256 247 212 223 225 277 305 276 283 294 302 300 315 322 323 315
318 317 315 318 321 336 358 163 46 43 39 315 301 313 340 2 2 354 316 230 215 229 198 216 220 220 223 271 265 256 259 268 292 282 297 293 302 297 286 311 322 329 314 319
317 312 310 310 304 320 332 176 319 294 329 272 295 313 314 341 332 346 28 235 217 232 226 231 230 230 204 247 269 305 317 310 319 317 304 299 307 314 319 313 315 324 324 316
317 309 304 302 286 272 225 232 322 283 243 269 308 281 319 350 318 321 305 240 215 223 241 251 235 224 198 266 269 302 306 308 301 300 325 307 313 319 327 325 313 315 320 323
317 306 310 22 154 178 320 327 323 191 213 243 241 279 296 331 317 303 282 268 249 252 248 239 185 69 57 305 320 318 321 320 294 324 326 306 322 323 321 325 325 325 326 323
312 296 238 199 198 248 313 161 241 208 225 225 255 268 279 301 321 302 315 258 238 257 236 130 172 97 290 334 334 330 329 343 332 326 331 340 333 329 330 333 332 330 329 325
305 243 210 226 255 254 232 220 225 193 238 230 247 247 277 294 257 277 269 287 266 267 52 306 62 359 342 336 333 348 346 340 335 350 353 341 337 332 334 336 345 348 340 331
307 283 208 169 203 223 242 213 177 218 257 224 231 263 254 281 245 269 288 284 295 332 345 37 13 345 340 338 344 350 360 7 349 354 354 354 352 349 343 349 354 354 355 358
174 156 164 193 171 74 226 151 340 337 215 253 256 282 292 270 273 323 339 349 340 1 19 24 45 336 341 340 343 351 14 357 347 354 0 6 7 7 4 1 7 8 4 12
185 170 334 186 211 229 168 163 198 255 271 316 315 281 265 346 20 351 331 360 339 35 12 5 346 343 339 340 341 350 358 359 334 347 1 11 16 19 14 16 19 18 24 29
195 188 224 210 255 152 177 173 134 7 342 331 332 2 334 4 22 21 351 24 38 34 10 310 326 338 336 338 340 346 351 355 342 344 3 14 20 27 26 27 29 31 35 46
209 226 247 217 143 272 138 112 16 348 334 331 25 45 52 37 346 36 5 59 8 323 322 315 330 335 335 335 339 349 355 4 355 343 7 17 23 29 29 25 39 45 49 50
216 234 225 251 246 224 155 174 340 342 344 25 60 63 271 326 39 56 36 36 300 315 317 324 334 331 329 333 339 351 359 11 10 341 3 17 27 31 38 42 44 56 59 59